Content
SEND FEEDBACK

Daily
Averages
Monthly
Summary
United States of America

WAHWEAP, ARIZONA


Home > North America > United States > Arizona
Elevation: 3703 feet     Latitude: 36 59N     Longitude: 111 29W

WEATHER
 
SELECT A DAY
Number of Records: 194,777;   Date Range: 1/1/95 - 8/12/14
 
SHARE

PRINT THIS DATA

[ ← Previous Day ]
WEATHER ALMANAC - JANUARY 7, 2013
[ Next Day → ]
[ °C ]   °F
Weather ElementAverageHighLow
Temperature30.4 °F39.2 °F (3:53 pm)24.1 °F (6:53 am)
Dewpoint13 °F15.1 °F (7:53 pm)10.4 °F (3:53 am)
Humidity49.3 %60 % (7:53 am)33 % (3:53 pm)
Barometer30.11 in30.18 in (9:53 am)30.05 in (3:53 pm)
Wind Speed1 mph4.6 mph (4:53 pm)
Weather ElementAverage
Visibility8.4 mi
Wind DirectionENE (56.8 °)

Weather ElementTotal
Precipitation---
Heating Degree Days33.4 (Base 65)
Averaged from 25 records on January 7, 2013
WEATHER CONDITIONS BREAKOUT
WIND DIRECTION BREAKOUT
WEATHER BY HOUR - JANUARY 7, 2013
[ °C ]   °F
Local TimeTemperatureDewpointHumidityBarometerVisibilityWind DirectionWind SpeedGust SpeedPrecipitationEventsConditions
1:53 AM26.1 °F12.0 °F55 %30.12 in10.0 miCalmClear
2:53 AM26.1 °F12.0 °F55 %30.11 in7.0 miCalmClear
3:53 AM26.6 °F10.4 °F51 %30.06 in6.0 miCalmHaze
4:53 AM26.1 °F10.9 °F53 %30.10 in10.0 miCalmClear
5:53 AM26.1 °F10.9 °F53 %30.11 in10.0 miSSW (200°)3.5 mphClear
6:53 AM24.1 °F10.9 °F57 %30.14 in9.0 miCalmClear
7:53 AM24.1 °F12.0 °F60 %30.16 in10.0 miCalmClear
8:53 AM28.0 °F12.9 °F53 %30.17 in10.0 miCalmClear
9:53 AM30.0 °F14.0 °F51 %30.18 in10.0 miCalmClear
10:53 AM33.1 °F14.0 °F46 %30.18 in10.0 miCalmClear
11:53 AM33.8 °F14.0 °F44 %30.10 in10.0 miNNW (330°)3.5 mphClear
12:53 PM35.1 °F14.0 °F42 %30.09 in10.0 miCalmClear
1:53 PM37.9 °F14.0 °F38 %30.08 in10.0 miEast (100°)3.5 mphClear
2:53 PM39.0 °F12.9 °F34 %30.07 in10.0 miNE (50°)3.5 mphClear
3:53 PM39.2 °F12.2 °F33 %30.05 in10.0 miENE (70°)3.5 mphClear
4:53 PM37.9 °F12.9 °F36 %30.08 in10.0 miNorth (360°)4.6 mphClear
5:53 PM34.0 °F14.0 °F44 %30.10 in10.0 miCalmClear
6:53 PM33.1 °F14.0 °F46 %30.13 in10.0 miCalmClear
7:53 PM30.9 °F15.1 °F52 %30.12 in9.0 miCalmClear
8:53 PM28.9 °F14.0 °F54 %30.11 in4.0 miCalmHaze
9:53 PM28.0 °F14.0 °F56 %30.13 in5.0 miCalmHaze
10:21 PM28.4 °F14.0 °F55 %30.07 in1.8 miCalmHaze
10:26 PM28.4 °F14.0 °F55 %30.07 in4.0 miCalmHaze
10:53 PM27.0 °F12.9 °F56 %30.12 in5.0 miNW (310°)3.5 mphHaze
11:53 PM28.0 °F12.9 °F53 %30.12 in10.0 miCalmClear
Hourly data recorded from KPGA, located miles away from Wahweap, Arizona







STORIES FROM OUR PARTNERS